FW1087 Weather Reports


time (UTC)temp
C
wind
direction
speed
KPH
gust
KPH
rain 1hr
cm
rain 24hr
cm
rain mn
cm
humidity
%
barometer
mb
20260504181105 10 189 1.6 6.4 0.00 0.10 0.10 83 1007.9
20260504174106 8 184 3.2 12.9 0.00 0.10 0.10 85 1007.9
20260504172607 8 232 4.8 14.5 0.00 0.10 0.10 88 1008.1
20260504151103 7 241 4.8 12.9 0.08 0.10 0.08 91 1008.2
20260504141107 7 209 3.2 16.1 0.00 0.03 0.00 85 1007.7
20260504081100 2 152 0.0 4.8 0.00 0.03 0.00 81 1008.5
20260504044056 -1 32 1.6 4.8 0.00 0.03 0.00 87 1009.0
20260504041056 -1 32 3.2 4.8 0.00 0.03 0.00 86 1009.0
20260504034053 -1 31 1.6 4.8 0.00 0.03 0.03 85 1009.0
20260504031054 -1 31 1.6 4.8 0.00 0.03 0.03 84 1009.2
20260504024052 0 17 1.6 4.8 0.00 0.03 0.03 83 1009.1
20260504021051 0 16 1.6 4.8 0.00 0.03 0.03 82 1009.2
20260504014052 0 16 1.6 4.8 0.00 0.03 0.03 82 1009.0
20260504011051 0 16 1.6 4.8 0.00 0.03 0.03 80 1009.0
20260504004052 1 10 1.6 4.8 0.00 0.05 0.03 77 1008.9
20260504001049 3 338 0.0 1.6 0.00 0.08 0.03 71 1008.7
20260503234050 5 338 0.0 4.8 0.00 0.08 0.03 66 1008.5
20260503231050 6 328 0.0 6.4 0.00 0.08 0.03 62 1008.5
20260503224100 6 287 3.2 14.5 0.00 0.08 0.03 62 1008.5
20260503224049 6 316 1.6 12.9 0.00 0.08 0.03 64 1008.5
20260503221059 6 287 3.2 14.5 0.00 0.08 0.03 62 1008.5
20260503214046 6 345 1.6 6.4 0.00 0.10 0.03 65 1008.5
20260503211046 5 330 1.6 11.3 0.00 0.10 0.03 66 1008.6
20260503204046 5 317 3.2 14.5 0.00 0.10 0.03 65 1008.5
20260503201046 5 297 4.8 17.7 0.00 0.10 0.03 63 1008.4
20260503194044 5 308 4.8 11.3 0.00 0.10 0.03 67 1008.7
20260503191046 4 64 3.2 12.9 0.00 0.10 0.03 74 1008.9
20260503184042 5 331 3.2 16.1 0.00 0.10 0.03 69 1008.9